FW0304 Weather Reports


Display with metric or nautical units.
time (UTC)temp
F
wind
direction
speed
MPH
gust
MPH
rain 1hr
in
rain 24hr
in
rain mn
in
humidity
%
barometer
mb
20260831120036 72 119 0.0 0.0 0.00 0.00 0.00 94 1019.5
20260831114547 71 119 0.0 0.0 0.00 0.00 0.00 93 1019.2
20260831113014 72 119 0.0 0.0 0.00 0.00 0.00 94 1019.0
20260831111515 72 119 0.0 0.0 0.00 0.00 0.00 93 1018.9
20260831110025 72 119 0.0 0.0 0.00 0.00 0.00 93 1018.8
20260831104517 72 119 0.0 0.0 0.00 0.00 0.00 93 1018.7
20260831103010 72 119 0.0 0.0 0.00 0.00 0.00 93 1018.6
20260831101517 72 119 0.0 0.0 0.00 0.00 0.00 93 1018.5
20260831100023 72 119 0.0 0.0 0.00 0.00 0.00 93 1018.4
20260831094527 72 119 0.0 0.0 0.00 0.00 0.00 93 1018.3
20260831093016 72 119 0.0 0.0 0.00 0.00 0.00 93 1018.3
20260831091514 72 119 0.0 0.0 0.00 0.00 0.00 93 1018.2
20260831090020 73 119 0.0 0.0 0.00 0.00 0.00 93 1018.1
20260831084527 73 119 0.0 0.0 0.00 0.00 0.00 92 1018.1
20260831083029 73 119 0.0 2.0 0.00 0.00 0.00 92 1017.9
20260831081508 73 119 0.0 0.0 0.00 0.00 0.00 92 1017.9
20260831080016 73 119 0.0 0.0 0.00 0.00 0.00 1017.9
20260831074526 73 119 0.0 0.0 0.00 0.00 0.00 92 1017.9
20260831073036 74 119 0.0 0.0 0.00 0.00 0.00 92 1017.9
20260831071531 74 119 0.0 0.0 0.00 0.00 0.00 92 1018.0
20260831070015 74 119 0.0 0.0 0.00 0.00 0.00 91 1017.9
20260831064525 74 119 0.0 0.0 0.00 0.00 0.00 92 1017.9
20260831063027 74 119 0.0 0.0 0.00 0.00 0.00 92 1017.9
20260831061532 74 119 0.0 0.0 0.00 0.00 0.00 91 1018.0
20260831060013 74 119 0.0 0.0 0.00 0.00 0.00 91 1017.9
20260831054519 74 119 0.0 0.0 0.00 0.00 0.00 91 1018.0
20260831053027 75 119 0.0 0.0 0.00 0.00 0.00 91 1018.0
20260831051531 75 119 0.0 0.0 0.00 0.00 0.00 90 1018.1
20260831050034 75 119 0.0 0.0 0.00 0.00 0.00 91 1018.1
20260831044515 75 119 0.0 0.0 0.00 0.00 0.00 90 1018.1
20260831043034 75 119 0.0 0.0 0.00 0.00 0.00 90 1018.1
20260831041528 75 119 0.0 0.0 0.00 0.00 0.00 89 1018.0
20260831040033 76 119 0.0 0.0 0.00 0.00 0.00 89 1018.0
20260831034535 76 119 0.0 0.0 0.00 0.00 0.00 88 1018.2
20260831033021 76 119 0.0 0.0 0.00 0.00 0.00 88 1018.2
20260831031534 76 119 0.0 0.0 0.00 0.00 0.00 88 1018.2
20260831030029 77 119 0.0 0.0 0.00 0.00 0.00 87 1018.2
20260831024532 77 119 0.0 0.0 0.00 0.00 0.00 87 1018.2
20260831023018 77 119 0.0 0.0 0.00 0.00 0.00 86 1018.0
20260831021530 78 119 0.0 0.0 0.00 0.00 0.00 85 1018.0
20260831020007 78 119 0.0 0.0 0.00 0.00 0.00 84 1017.9
20260831014509 79 119 0.0 0.0 0.00 0.00 0.00 82 1017.7
20260831013030 79 119 0.0 0.0 0.00 0.00 0.00 81 1017.5
20260831011524 80 119 0.0 0.0 0.00 0.00 0.00 80 1017.5
20260831010003 80 119 0.0 0.0 0.00 0.00 0.00 79 1017.4
20260831004512 81 119 0.0 0.0 0.00 0.00 0.00 78 1017.2
20260831003021 82 119 0.0 0.0 0.00 0.00 0.00 77 1017.2
20260831001525 83 119 0.0 0.0 0.00 0.00 0.00 75 1017.3
20260831000026 85 119 0.0 0.0 0.00 0.00 0.00 73 1017.3
20260830234505 86 119 0.0 0.0 0.00 0.00 0.00 70 1017.4
20260830233010 88 119 0.0 2.0 0.00 0.00 0.00 65 1017.3
20260830231526 88 124 0.0 0.0 0.00 0.00 0.00 61 1017.3
20260830230027 89 124 0.0 2.0 0.00 0.00 0.00 58 1017.3
20260830224529 89 87 0.0 2.0 0.00 0.00 0.00 59 1017.3
20260830223008 87 111 0.0 1.0 0.00 0.00 0.00 66 1017.3
20260830221519 89 111 0.0 3.0 0.00 0.00 0.00 60 1017.4
20260830220024 90 125 0.0 4.0 0.00 0.00 0.00 57 1017.5
20260830214530 90 173 2.0 7.0 0.00 0.00 0.00 55 1017.4
20260830213004 91 166 0.0 3.0 0.00 0.00 0.00 54 1017.5
20260830211514 91 145 1.0 2.0 0.00 0.00 0.00 55 1017.5
20260830210020 91 272 0.0 4.0 0.00 0.00 0.00 57 1017.6
20260830204523 91 327 3.0 4.0 0.00 0.00 0.00 52 1017.7
20260830203031 91 101 0.0 4.0 0.00 0.00 0.00 55 1017.9
20260830201512 91 123 1.0 3.0 0.00 0.00 0.00 54 1018.0
20260830200015 90 164 0.0 3.0 0.00 0.00 0.00 56 1018.2
20260830194524 90 151 0.0 2.0 0.00 0.00 0.00 56 1018.5
20260830193028 90 161 1.0 4.0 0.00 0.00 0.00 54 1018.6
20260830191532 91 316 0.0 4.0 0.00 0.00 0.00 56 1018.7
20260830190015 90 153 1.0 5.0 0.00 0.00 0.00 57 1019.0
20260830184525 91 67 2.0 3.0 0.00 0.00 0.00 58 1019.2
20260830183028 89 179 0.0 3.0 0.00 0.00 0.00 61 1019.3
20260830181530 90 182 0.0 4.0 0.00 0.00 0.00 61 1019.5
20260830180012 90 271 2.0 6.0 0.00 0.00 0.00 59 1019.6
20260830174518 89 87 1.0 6.0 0.00 0.00 0.00 61 1019.7
20260830173026 89 293 0.0 5.0 0.00 0.00 0.00 63 1019.8
20260830171507 89 178 0.0 4.0 0.00 0.00 0.00 63 1020.1
20260830170013 89 122 0.0 4.0 0.00 0.00 0.00 63 1020.2
20260830164516 88 165 0.0 4.0 0.00 0.00 0.00 63 1020.3
20260830163025 87 106 1.0 4.0 0.00 0.00 0.00 65 1020.4
20260830161527 88 150 1.0 4.0 0.00 0.00 0.00 66 1020.5
20260830160011 88 100 1.0 4.0 0.00 0.00 0.00 64 1020.6
20260830154516 88 117 0.0 4.0 0.00 0.00 0.00 67 1020.6
20260830153039 87 9 0.0 3.0 0.00 0.00 0.00 69 1020.6
20260830151529 87 128 0.0 3.0 0.00 0.00 0.00 70 1020.7
20260830150031 86 312 0.0 4.0 0.00 0.00 0.00 72 1020.7
20260830144512 85 336 0.0 3.0 0.00 0.00 0.00 74 1020.7
20260830143017 85 315 0.0 2.0 0.00 0.00 0.00 77 1020.7
20260830141524 83 108 2.0 3.0 0.00 0.00 0.00 77 1020.7
20260830140033 83 317 0.0 3.0 0.00 0.00 0.00 80 1020.8
20260830134513 81 155 0.0 2.0 0.00 0.00 0.00 83 1020.6
20260830133017 79 159 1.0 3.0 0.00 0.00 0.00 84 1020.5
20260830131538 78 111 1.0 3.0 0.00 0.00 0.00 87 1020.4
20260830130028 77 124 0.0 0.0 0.00 0.00 0.00 90 1020.4
20260830124532 75 92 0.0 0.0 0.00 0.00 0.00 92 1020.4
20260830123015 74 92 0.0 0.0 0.00 0.00 0.00 93 1020.2
20260830121525 73 92 0.0 0.0 0.00 0.00 0.00 94 1020.2